• In United Kingdom
  • List of Countries
  • For 7 days
  • Water Temperature
  • Satellite Maps
  • Weather Map
  • Weather Widgets
  • user-avatar
    Login

    Hourly Weather Lubumbashi

    Today, 21 July, Saturday

    Time Temperature Precipitation Wind Pressure Humidity
    00:00 +36°C° 0 mm 5 mps 719 mmHg 38%
    01:00 +35°C° 0 mm 5 mps 719 mmHg 39%
    02:00 +34°C° 0 mm 4 mps 719 mmHg 42%
    03:00 +33°C° 0 mm 5 mps 720 mmHg 45%
    04:00 +32°C° 0 mm 5 mps 720 mmHg 48%
    05:00 +32°C° 0 mm 6 mps 720 mmHg 51%
    06:00 +32°C° 0 mm 5 mps 720 mmHg 52%
    07:00 +32°C° 0 mm 5 mps 720 mmHg 52%
    08:00 +32°C° 0 mm 5 mps 721 mmHg 51%
    09:00 +34°C° 0 mm 5 mps 721 mmHg 47%
    10:00 +35°C° 0 mm 5 mps 721 mmHg 42%
    11:00 +37°C° 0 mm 4 mps 721 mmHg 38%
    12:00 +37°C° 0 mm 4 mps 720 mmHg 35%
    13:00 +38°C° 0 mm 3 mps 720 mmHg 33%
    14:00 +39°C° 0 mm 2 mps 719 mmHg 30%
    15:00 +39°C° 0 mm 2 mps 719 mmHg 30%
    16:00 +39°C° 0 mm 1 mps 719 mmHg 30%
    17:00 +39°C° 0 mm 1 mps 718 mmHg 30%
    18:00 +39°C° 0 mm 1 mps 719 mmHg 30%
    19:00 +38°C° 0 mm 2 mps 719 mmHg 31%
    20:00 +38°C° 0 mm 2 mps 719 mmHg 32%
    21:00 +37°C° 0.2 mm 3 mps 719 mmHg 35%
    22:00 +36°C° 0.2 mm 4 mps 719 mmHg 38%
    23:00 +35°C° 0.2 mm 5 mps 720 mmHg 41%

    Tomorrow, 22 July, Sunday

    Time Temperature Precipitation Wind Pressure Humidity
    00:00 +35°C° 0.1 mm 4 mps 719 mmHg 43%
    01:00 +34°C° 0.1 mm 4 mps 719 mmHg 45%
    02:00 +33°C° 0.1 mm 4 mps 719 mmHg 47%
    03:00 +33°C° 0 mm 3 mps 719 mmHg 48%
    04:00 +33°C° 0 mm 3 mps 719 mmHg 50%
    05:00 +31°C° 0 mm 3 mps 719 mmHg 51%
    06:00 +33°C° 0 mm 4 mps 719 mmHg 51%
    07:00 +33°C° 0 mm 4 mps 719 mmHg 50%
    08:00 +33°C° 0 mm 5 mps 720 mmHg 50%
    09:00 +35°C° 0 mm 5 mps 720 mmHg 46%
    10:00 +36°C° 0 mm 5 mps 720 mmHg 41%
    11:00 +37°C° 0 mm 5 mps 720 mmHg 37%
    12:00 +39°C° 0 mm 5 mps 720 mmHg 35%
    13:00 +40°C° 0 mm 4 mps 719 mmHg 33%
    14:00 +40°C° 0 mm 3 mps 719 mmHg 30%
    15:00 +40°C° 0 mm 3 mps 718 mmHg 31%
    16:00 +40°C° 0 mm 3 mps 718 mmHg 31%
    17:00 +39°C° 0 mm 3 mps 717 mmHg 31%
    18:00 +39°C° 0 mm 3 mps 717 mmHg 32%
    19:00 +38°C° 0 mm 4 mps 718 mmHg 34%
    20:00 +38°C° 0 mm 4 mps 718 mmHg 35%
    21:00 +37°C° 0.3 mm 5 mps 718 mmHg 39%
    22:00 +35°C° 0.3 mm 5 mps 718 mmHg 44%
    23:00 +34°C° 0.3 mm 6 mps 719 mmHg 48%

    Day after tomorrow, 23 July, Monday

    Time Temperature Precipitation Wind Pressure Humidity
    00:00 +33°C° 0.1 mm 6 mps 719 mmHg 52%
    01:00 +33°C° 0.1 mm 6 mps 719 mmHg 56%
    02:00 +32°C° 0.1 mm 6 mps 719 mmHg 60%
    03:00 +32°C° 0 mm 5 mps 718 mmHg 61%
    04:00 +30°C° 0 mm 5 mps 718 mmHg 62%
    05:00 +30°C° 0 mm 5 mps 718 mmHg 64%
    06:00 +30°C° 0 mm 5 mps 719 mmHg 62%
    07:00 +32°C° 0 mm 5 mps 719 mmHg 61%
    08:00 +32°C° 0 mm 5 mps 720 mmHg 59%
    09:00 +34°C° 0 mm 6 mps 720 mmHg 53%
    10:00 +35°C° 0 mm 6 mps 720 mmHg 46%
    11:00 +38°C° 0 mm 6 mps 721 mmHg 39%
    12:00 +39°C° 0 mm 6 mps 720 mmHg 37%
    13:00 +39°C° 0 mm 6 mps 719 mmHg 36%
    14:00 +40°C° 0 mm 5 mps 718 mmHg 34%
    15:00 +40°C° 0 mm 5 mps 718 mmHg 34%
    16:00 +40°C° 0 mm 5 mps 718 mmHg 34%
    17:00 +39°C° 0 mm 5 mps 717 mmHg 34%
    18:00 +39°C° 0 mm 5 mps 717 mmHg 36%
    19:00 +37°C° 0 mm 4 mps 718 mmHg 37%
    20:00 +37°C° 0 mm 4 mps 718 mmHg 39%
    21:00 +36°C° 0.1 mm 5 mps 718 mmHg 42%
    22:00 +35°C° 0.1 mm 6 mps 719 mmHg 45%
    23:00 +34°C° 0.1 mm 7 mps 719 mmHg 49%

    24 July, Tuesday

    Time Temperature Precipitation Wind Pressure Humidity
    00:00 +33°C° 0.5 mm 6 mps 719 mmHg 53%
    01:00 +32°C° 0.5 mm 6 mps 719 mmHg 56%
    02:00 +30°C° 0.5 mm 5 mps 718 mmHg 60%
    03:00 +30°C° 0 mm 5 mps 718 mmHg 61%
    04:00 +30°C° 0 mm 4 mps 718 mmHg 63%
    05:00 +29°C° 0 mm 4 mps 718 mmHg 64%
    06:00 +30°C° 0 mm 4 mps 719 mmHg 63%
    07:00 +30°C° 0 mm 5 mps 719 mmHg 62%
    08:00 +30°C° 0 mm 5 mps 720 mmHg 60%
    09:00 +33°C° 0 mm 5 mps 720 mmHg 54%
    10:00 +35°C° 0 mm 5 mps 720 mmHg 48%
    11:00 +36°C° 0 mm 5 mps 720 mmHg 42%
    12:00 +37°C° 0 mm 5 mps 719 mmHg 40%
    13:00 +37°C° 0 mm 4 mps 719 mmHg 38%
    14:00 +38°C° 0 mm 4 mps 718 mmHg 36%
    15:00 +38°C° 0 mm 4 mps 718 mmHg 36%
    16:00 +37°C° 0 mm 4 mps 718 mmHg 36%
    17:00 +37°C° 0 mm 3 mps 717 mmHg 36%
    18:00 +36°C° 0 mm 5 mps 718 mmHg 40%
    19:00 +35°C° 0 mm 6 mps 718 mmHg 44%
    20:00 +34°C° 0 mm 7 mps 718 mmHg 49%
    21:00 +33°C° 0.1 mm 7 mps 719 mmHg 52%
    22:00 +32°C° 0.1 mm 6 mps 720 mmHg 56%
    23:00 +30°C° 0.1 mm 6 mps 720 mmHg 60%

    25 July, Wednesday

    Time Temperature Precipitation Wind Pressure Humidity
    00:00 +30°C° 1.1 mm 5 mps 720 mmHg 62%
    01:00 +29°C° 1.1 mm 5 mps 719 mmHg 64%
    02:00 +29°C° 1.1 mm 4 mps 719 mmHg 67%
    03:00 +29°C° 1.6 mm 4 mps 719 mmHg 68%
    04:00 +28°C° 1.6 mm 4 mps 719 mmHg 70%
    05:00 +28°C° 1.6 mm 4 mps 719 mmHg 71%
    06:00 +28°C° 0.4 mm 4 mps 720 mmHg 71%
    07:00 +28°C° 0.4 mm 5 mps 720 mmHg 71%
    08:00 +28°C° 0.4 mm 6 mps 721 mmHg 71%
    09:00 +29°C° 0.1 mm 5 mps 721 mmHg 67%
    10:00 +30°C° 0.1 mm 5 mps 721 mmHg 63%
    11:00 +30°C° 0.1 mm 5 mps 721 mmHg 60%
    12:00 +32°C° 0 mm 5 mps 720 mmHg 56%
    13:00 +33°C° 0 mm 5 mps 719 mmHg 52%
    14:00 +34°C° 0 mm 4 mps 719 mmHg 49%
    15:00 +34°C° 0 mm 4 mps 718 mmHg 46%
    16:00 +35°C° 0 mm 3 mps 718 mmHg 44%
    17:00 +35°C° 0 mm 3 mps 718 mmHg 42%
    18:00 +35°C° 0 mm 3 mps 718 mmHg 44%
    19:00 +34°C° 0 mm 3 mps 719 mmHg 45%
    20:00 +34°C° 0 mm 2 mps 719 mmHg 46%
    21:00 +33°C° 0.2 mm 4 mps 719 mmHg 51%
    22:00 +32°C° 0.2 mm 5 mps 719 mmHg 56%
    23:00 +30°C° 0.2 mm 6 mps 719 mmHg 60%

    26 July, Thursday

    Time Temperature Precipitation Wind Pressure Humidity
    00:00 +29°C° 0.3 mm 5 mps 719 mmHg 63%
    01:00 +29°C° 0.3 mm 5 mps 719 mmHg 65%
    02:00 +28°C° 0.3 mm 5 mps 719 mmHg 68%
    03:00 +28°C° 0.6 mm 4 mps 719 mmHg 69%
    04:00 +28°C° 0.6 mm 4 mps 719 mmHg 71%
    05:00 +27°C° 0.6 mm 4 mps 719 mmHg 72%
    06:00 +27°C° 0.3 mm 4 mps 719 mmHg 72%
    07:00 +28°C° 0.3 mm 5 mps 720 mmHg 71%
    08:00 +28°C° 0.3 mm 5 mps 720 mmHg 71%
    09:00 +29°C° 0 mm 5 mps 720 mmHg 66%
    10:00 +30°C° 0 mm 6 mps 720 mmHg 62%
    11:00 +32°C° 0 mm 6 mps 720 mmHg 57%
    12:00 +33°C° 0.2 mm 6 mps 720 mmHg 54%
    13:00 +34°C° 0.2 mm 6 mps 719 mmHg 50%
    14:00 +35°C° 0.2 mm 6 mps 718 mmHg 47%
    15:00 +35°C° 0.3 mm 5 mps 718 mmHg 47%
    16:00 +35°C° 0.3 mm 5 mps 718 mmHg 47%
    17:00 +34°C° 0.3 mm 5 mps 718 mmHg 47%
    18:00 +34°C° 0 mm 5 mps 718 mmHg 49%
    19:00 +33°C° 0 mm 5 mps 719 mmHg 50%
    20:00 +33°C° 0 mm 5 mps 719 mmHg 52%
    21:00 +32°C° 0.2 mm 6 mps 720 mmHg 55%
    22:00 +30°C° 0.2 mm 6 mps 720 mmHg 58%
    23:00 +29°C° 0.2 mm 7 mps 720 mmHg 60%
    Show more